Tracking 30995 objects as of 5-Jul-2025
HD Live streaming from Space Station
objects crossing your sky now

ATLAS 2AS CENTAUR R/B

Track ATLAS 2AS CENTAUR R/B now!
10-day predictions


NORAD ID: 28096
Int'l Code: 2003-054B
Perigee: 1,047.2 km
Apogee: 1,177.9 km
Inclination: 63.7 °
Period: 107.4 minutes
Semi major axis: 7483 km
RCS: Unknown
Launch date: December 2, 2003
Source: United States (US)
Launch site: AIR FORCE WESTERN TEST RANGE (AFWTR)

Note: This is a ROCKET BODY
Your satellite tracking list
Your tracking list is empty




NASA's NSSDC Master Catalog

Two Line Element Set (TLE):
1 28096U 03054B   25186.39961882 -.00000050  00000-0  66065-4 0  9998
2 28096  63.6772 190.6076 0087340 142.3602 218.3581 13.41038205 55912
Source of the keplerian elements: McCants